Other Public Products
Issued by NWS Grand Forks, ND

Home | Current Version | Previous Version | Graphics & Text | Print | Product List | Glossary On
Versions: 1 2 3 4 5 6 7 8 9 10 11 12 13 14 15 16 17 18 19 20 21 22 23 24 25 26 27 28 29 30 31 32 33 34 35 36 37 38 39 40 41 42 43 44 45 46 47 48 49 50
000
FPUS83 KFGF 270610
OPUFGF
PRAIRIE TO PINES WEATHER ROUNDUP
NATIONAL WEATHER SERVICE EASTERN NORTH DAKOTA/GRAND FORKS ND
100 AM CDT THU JUL 27 2017

 **SATELLITE DATA USED TO AUGMENT SKY COVER AT AUTOMATED STATIONS**
 *****  WEATHER ACROSS EASTERN NORTH DAKOTA  *****

CITY           SKY/WX    TMP DP  RH WIND       PRES   REMARKS
GRAND FORKS    FAIR      61  59  93 W7        30.09S
6HR MIN TEMP:  61; 6HR MAX TEMP:  82;

GRAND FORKS AF FAIR      58  56  95 W3        30.11R
GRAND CITY NWS NOT AVBL
BUXTON         NOT AVBL
DEVILS LAKE    FAIR      61  59  93 CALM      30.14S
6HR MIN TEMP:  60; 6HR MAX TEMP:  78;

FARGO          FAIR      62  60  93 CALM      30.09S
6HR MIN TEMP:  59; 6HR MAX TEMP:  81;

WAHPETON ARPT  FAIR      63  57  82 N6        30.10S
$$

 *****  WEATHER ACROSS CENTRAL AND WESTERN NORTH DAKOTA  *****

CITY           SKY/WX    TMP DP  RH WIND       PRES   REMARKS
JAMESTOWN      FAIR      61  57  87 CALM      30.13R
6HR MIN TEMP:  61; 6HR MAX TEMP:  81;

BISMARCK       FAIR      64  56  75 E6        30.15R
6HR MIN TEMP:  64; 6HR MAX TEMP:  85;

MINOT          MOCLDY    67  55  65 SE6       30.12S
6HR MIN TEMP:  66; 6HR MAX TEMP:  84;

MINOT AFB      MOCLDY    63  55  75 S5        30.11R
6HR MIN TEMP:  62; 6HR MAX TEMP:  82;

GARRISON         N/A     66  57  72 SE6       30.13S
6HR MIN TEMP:  66; 6HR MAX TEMP:  82;

WILLISTON      MOCLDY    75  53  46 E9G20     30.11R
6HR MIN TEMP:  75; 6HR MAX TEMP:  91;

DICKINSON      FAIR      62  51  67 E8        30.12S
6HR MIN TEMP:  62; 6HR MAX TEMP:  88;

HETTINGER      FAIR      70  53  54 SE9       30.14S
6HR MIN TEMP:  69; 6HR MAX TEMP:  87;

$$

 *****  OTHER OBSERVATIONS NORTHEAST NORTH DAKOTA  *****

CITY           SKY/WX    TMP DP  RH WIND       PRES   REMARKS
WALHALLA       NOT AVBL
LANGDON        FAIR      57  57 100 W3        30.14S
CAVALIER       FAIR      61  59  94 CALM      30.09S
GRAFTON        FAIR      61  59  94 CALM      30.11S
CANDO          NOT AVBL
FORT TOTTEN      N/A     64  56  75 CALM      29.95S
ROLLA            N/A     54  54 100 CALM      30.15S
RUGBY          NOT AVBL
 ***** THE ABOVE OBSERVATIONS ARE NON NWS ARE NOT QUALITY
        CONTROLLED AND MAY MIS-REPORT RAIN FOR SNOW...
$$

 *****  OTHER OBSERVATIONS SOUTHEAST NORTH DAKOTA *****

CITY           SKY/WX    TMP DP  RH WIND       PRES   REMARKS
COOPERSTOWN    FAIR      61  59  94 CALM      30.14S
VALLEY CITY    FAIR      61  61 100 CALM      30.15R
OAKES          NOT AVBL
GWINNER        CLEAR     63  59  88 CALM      30.12R
SHEYENNE NWR     N/A     63  59  88 N2        29.95S
BUFFALO        NOT AVBL
WYNDMERE       NOT AVBL
 ***** THE ABOVE OBSERVATIONS ARE NON NWS ARE NOT QUALITY
       CONTROLLED AND MAY MIS-REPORT RAIN FOR SNOW...
$$

  *****  WEATHER ACROSS NORTHERN MINNESOTA  *****

CITY           SKY/WX    TMP DP  RH WIND       PRES   REMARKS
FLAG ISLAND    FAIR      70  61  73 NW8       30.06R
WARROAD        FAIR      64  61  88 W6        30.08S
ROSEAU           N/A     64  59  82 W5        30.09R
HALLOCK        FAIR      61  59  94 CALM      30.09S
THF RVR FALLS  FAIR      64  59  83 N5        30.11S
6HR MIN TEMP:  64; 6HR MAX TEMP:  79;

HALSTAD        NOT AVBL
FOSSTON        FAIR      57  55  94 CALM      30.11S
BAUDETTE       FAIR      62  59  90 W5        30.07R
6HR MIN TEMP:  61; 6HR MAX TEMP:  78;

WASKISH        FAIR      66  61  82 NW3       30.08S
CROOKSTON      FAIR      61  57  88 CALM      30.10S
$$
  *****  WEATHER ACROSS CENTRAL AND WEST MINNESOTA  *****

CITY           SKY/WX    TMP DP  RH WIND       PRES   REMARKS
BEMIDJI        FAIR      61  57  88 W3        30.10R
PARK RAPIDS    FAIR      60  57  89 W6        30.10R
6HR MIN TEMP:  60; 6HR MAX TEMP:  80;

WADENA         FAIR      61  61 100 NW6       30.10R
DETROIT LAKES  FAIR      64  61  88 N3        30.12S
MOORHEAD       FAIR      63  59  88 CALM      30.10S
FERGUS FALLS   FAIR      64  61  88 NE3       30.09S
ELBOW LAKE     FOG       64  62  91 CALM      30.10S VSB 1/2
6HR MIN TEMP:  64; 6HR MAX TEMP:  78;

MORRIS MN      FAIR      66  61  82 N8        30.08S
STAPLES        FAIR      61  59  94 CALM      30.09S
WHEATON        FAIR      64  61  88 NW3       30.11S
$$
  *****  WEATHER ELSEWHERE ACROSS MINNESOTA  *****

CITY           SKY/WX    TMP DP  RH WIND       PRES   REMARKS
DULUTH         FAIR      63  59  87 N5        30.06R
6HR MIN TEMP:  63; 6HR MAX TEMP:  79;

INTRNTL FALLS  FAIR      54  52  93 CALM      30.06R
6HR MIN TEMP:  54; 6HR MAX TEMP:  78;

ELY            FAIR      57  55  94 CALM      30.06R
CLOQUET        FAIR      63  55  77 NW5       30.06S
BRAINERD       FAIR      61  60  97 CALM      30.08R
6HR MIN TEMP:  60; 6HR MAX TEMP:  79;

HIBBING        FAIR      54  54 100 NW3       30.07R
6HR MIN TEMP:  54; 6HR MAX TEMP:  76;

ALEXANDRIA     FAIR      67  62  84 N6        30.11R
6HR MIN TEMP:  66; 6HR MAX TEMP:  78;

SAINT CLOUD    FAIR      65  63  93 N5        30.05S
6HR MIN TEMP:  64; 6HR MAX TEMP:  80;

MINNEAPOLIS    FAIR      69  63  81 NW3       30.04R
6HR MIN TEMP:  69; 6HR MAX TEMP:  82;

$$

  *****  WEATHER ACROSS SOUTH DAKOTA  *****

CITY           SKY/WX    TMP DP  RH WIND       PRES   REMARKS
SIOUX FALLS    FAIR      66  63  90 N7        30.09R
6HR MIN TEMP:  64; 6HR MAX TEMP:  80;

BROOKINGS      FAIR      63  62  97 CALM      30.12R
WATERTOWN      FAIR      62  60  93 CALM      30.12R
6HR MIN TEMP:  60; 6HR MAX TEMP:  79;

HURON          FAIR      62  60  93 CALM      30.10R
6HR MIN TEMP:  62; 6HR MAX TEMP:  83; 6HR PCP: TRACE;

SISSETON         N/A     62  60  93 NW8       30.10R
ABERDEEN       FAIR      65  60  84 N5        30.12R
6HR MIN TEMP:  65; 6HR MAX TEMP:  83;

MITCHELL       FAIR      67  63  87 NW3       30.10R
PIERRE         FAIR      67  54  63 E3        30.10S
6HR MIN TEMP:  67; 6HR MAX TEMP:  88;

MOBRIDGE       FAIR      69  57  65 E12       30.11R
RAPID CITY     FAIR      68  52  56 SE6       30.17S
6HR MIN TEMP:  67; 6HR MAX TEMP:  85;

$$

  *****  SOME WEATHER IN NEARBY STATES *****

CITY           SKY/WX    TMP DP  RH WIND       PRES   REMARKS
GLASGOW MT     FAIR      78  46  32 E21       29.99S
6HR MIN TEMP:  78; 6HR MAX TEMP:  92;

GREAT FALLS MT FAIR      75  42  30 S10       30.02S
6HR MIN TEMP:  71; 6HR MAX TEMP:  91;

CHEYENNE WY    CLOUDY    66  57  72 S6        30.32S
6HR MIN TEMP:  64; 6HR MAX TEMP:  70; 6HR PCP: TRACE;

SCOTTSBLUFF NE MOCLDY    68  61  78 E6        30.20R
6HR MIN TEMP:  68; 6HR MAX TEMP:  82;

OMAHA NE       FOG       72  70  93 N5        30.02S VSB 1/4
6HR MIN TEMP:  71; 6HR MAX TEMP:  77; 6HR PCP: TRACE;

DES MOINES IA  MOCLDY    73  71  93 N5        29.98S
6HR MIN TEMP:  73; 6HR MAX TEMP:  78; 6HR PCP:  0.02;

DAVENPORT IA   CLOUDY    72  70  93 CALM      29.98S
6HR MIN TEMP:  72; 6HR MAX TEMP:  73; 6HR PCP:  0.02;

CHICAGO IL     LGT RAIN  76  72  87 SW7       29.93F
6HR MIN TEMP:  76; 6HR MAX TEMP:  81; 6HR PCP:  0.03;

EAU CLAIRE WI  FAIR      64  62  93 CALM      30.01R
6HR MIN TEMP:  63; 6HR MAX TEMP:  80;

LA CROSSE WI   FAIR      72  70  93 NW7       29.99S
6HR MIN TEMP:  71; 6HR MAX TEMP:  83; 6HR PCP: TRACE;

$$

  *****  SOME NATIONAL WEATHER *****

CITY           SKY/WX    TMP DP  RH WIND       PRES   REMARKS
LA GUARDIA NY  MOCLDY    69  60  73 S5        30.11S



USA.gov is the U.S. government's official web portal to all federal, state and local government web resources and services.